| time (UTC) | temp C | wind direction | speed KPH | gust KPH | rain 1hr cm | rain 24hr cm | rain mn cm | humidity % | barometer mb |
| 20260906121008 | -17 | 0.0 | 0.0 | 0.00 | 0.00 | 0.00 | 1012.2 | ||
| 20260906120508 | -17 | 0.0 | 0.0 | 0.00 | 0.00 | 0.00 | 1012.4 | ||
| 20260906115916 | -17 | 0.0 | 0.0 | 0.00 | 0.00 | 0.00 | 1012.5 | ||
| 20260906115413 | -17 | 0.0 | 0.0 | 0.00 | 0.00 | 0.00 | 1012.5 | ||
| 20260906114907 | -17 | 0.0 | 0.0 | 0.00 | 0.00 | 0.00 | 1012.5 | ||
| 20260906114313 | -17 | 0.0 | 0.0 | 0.00 | 0.00 | 0.00 | 1012.4 | ||
| 20260906113728 | -17 | 0.0 | 0.0 | 0.00 | 0.00 | 0.00 | 1012.5 | ||
| 20260906113204 | -17 | 0.0 | 0.0 | 0.00 | 0.00 | 0.00 | 1012.8 | ||
| 20260906112616 | -17 | 0.0 | 0.0 | 0.00 | 0.00 | 0.00 | 1012.6 | ||
| 20260906112108 | -17 | 0.0 | 0.0 | 0.00 | 0.00 | 0.00 | 1012.6 | ||
| 20260906111608 | -17 | 0.0 | 0.0 | 0.00 | 0.00 | 0.00 | 1013.0 | ||
| 20260906111106 | -17 | 0.0 | 0.0 | 0.00 | 0.00 | 0.00 | 1013.0 | ||
| 20260906110515 | -17 | 0.0 | 0.0 | 0.00 | 0.00 | 0.00 | 1013.1 | ||
| 20260906110012 | -17 | 0.0 | 0.0 | 0.00 | 0.00 | 0.00 | 1012.8 | ||
| 20260906105013 | -17 | 0.0 | 0.0 | 0.00 | 0.00 | 0.00 | 1012.7 | ||
| 20260906103000 | -17 | 0.0 | 0.0 | 0.00 | 0.00 | 0.00 | 1012.5 | ||
| 20260906102412 | -17 | 0.0 | 0.0 | 0.00 | 0.00 | 0.00 | 1012.6 | ||
| 20260906101410 | -17 | 0.0 | 0.0 | 0.00 | 0.00 | 0.00 | 1012.3 | ||
| 20260906100407 | -17 | 0.0 | 0.0 | 0.00 | 0.00 | 0.00 | 1012.5 | ||
| 20260906095908 | -17 | 44 | 0.0 | 0.0 | 0.00 | 0.00 | 0.00 | 1012.5 | |
| 20260906095404 | 25 | 44 | 0.0 | 0.0 | 0.00 | 0.00 | 0.00 | 72 | 1012.5 |
| 20260906094818 | 25 | 44 | 0.0 | 0.0 | 0.00 | 0.00 | 0.00 | 72 | 1012.5 |
| 20260906093820 | 25 | 101 | 0.0 | 0.0 | 0.00 | 0.00 | 0.00 | 73 | 1012.0 |
| 20260906093320 | 25 | 101 | 0.0 | 0.0 | 0.00 | 0.00 | 0.00 | 73 | 1011.9 |
| 20260906092819 | 25 | 65 | 0.0 | 0.0 | 0.00 | 0.00 | 0.00 | 73 | 1011.9 |
| 20260906092319 | 25 | 96 | 0.0 | 3.2 | 0.00 | 0.00 | 0.00 | 71 | 1011.7 |
| 20260906091819 | 25 | 88 | 0.0 | 3.2 | 0.00 | 0.00 | 0.00 | 70 | 1011.8 |
| 20260906091318 | 25 | 103 | 0.0 | 1.6 | 0.00 | 0.00 | 0.00 | 67 | 1011.8 |
| 20260906090823 | 25 | 113 | 0.0 | 0.0 | 0.00 | 0.00 | 0.00 | 66 | 1011.9 |
| 20260906090320 | 25 | 96 | 0.0 | 0.0 | 0.00 | 0.00 | 0.00 | 65 | 1012.0 |
| 20260906085818 | 25 | 91 | 0.0 | 0.0 | 0.00 | 0.00 | 0.00 | 64 | 1011.9 |
| 20260906085319 | 25 | 18 | 0.0 | 0.0 | 0.00 | 0.00 | 0.00 | 64 | 1012.0 |
| 20260906084819 | 25 | 18 | 0.0 | 0.0 | 0.00 | 0.00 | 0.00 | 63 | 1011.9 |
| 20260906084319 | 25 | 17 | 0.0 | 0.0 | 0.00 | 0.00 | 0.00 | 62 | 1011.6 |
| 20260906083820 | 25 | 108 | 0.0 | 0.0 | 0.00 | 0.00 | 0.00 | 61 | 1011.6 |
| 20260906083315 | 25 | 34 | 0.0 | 0.0 | 0.00 | 0.00 | 0.00 | 60 | 1011.7 |
| 20260906082815 | 25 | 217 | 0.0 | 0.0 | 0.00 | 0.00 | 0.00 | 59 | 1011.2 |
| 20260906082315 | 25 | 74 | 0.0 | 4.8 | 0.00 | 0.00 | 0.00 | 58 | 1011.6 |
| 20260906081315 | 25 | 68 | 0.0 | 0.0 | 0.00 | 0.00 | 0.00 | 60 | 1011.4 |
| 20260906080816 | 25 | 44 | 0.0 | 0.0 | 0.00 | 0.00 | 0.00 | 61 | 1011.3 |
| 20260906080315 | 25 | 230 | 0.0 | 0.0 | 0.00 | 0.00 | 0.00 | 62 | 1011.4 |
| 20260906075814 | 25 | 230 | 0.0 | 0.0 | 0.00 | 0.00 | 0.00 | 62 | 1011.1 |
| 20260906074815 | 25 | 230 | 0.0 | 0.0 | 0.00 | 0.00 | 0.00 | 63 | 1011.1 |
| 20260906074315 | 25 | 230 | 0.0 | 0.0 | 0.00 | 0.00 | 0.00 | 63 | 1011.1 |
| 20260906073815 | 25 | 230 | 0.0 | 0.0 | 0.00 | 0.00 | 0.00 | 63 | 1011.1 |
| 20260906073316 | 25 | 230 | 0.0 | 0.0 | 0.00 | 0.00 | 0.00 | 63 | 1011.2 |
| 20260906072816 | 25 | 230 | 0.0 | 0.0 | 0.00 | 0.00 | 0.00 | 64 | 1011.2 |
| 20260906072316 | 25 | 230 | 0.0 | 0.0 | 0.00 | 0.00 | 0.00 | 66 | 1011.2 |
| 20260906071811 | 25 | 230 | 0.0 | 0.0 | 0.00 | 0.00 | 0.00 | 66 | 1011.2 |
| 20260906070311 | 25 | 230 | 0.0 | 0.0 | 0.00 | 0.00 | 0.00 | 68 | 1011.2 |
| 20260906065810 | 25 | 230 | 0.0 | 0.0 | 0.00 | 0.00 | 0.00 | 69 | 1011.1 |
| 20260906065311 | 25 | 230 | 0.0 | 0.0 | 0.00 | 0.00 | 0.00 | 69 | 1011.0 |
| 20260906064811 | 25 | 230 | 0.0 | 0.0 | 0.00 | 0.00 | 0.00 | 70 | 1011.0 |
| 20260906064312 | 26 | 230 | 0.0 | 0.0 | 0.00 | 0.00 | 0.00 | 70 | 1010.9 |
| 20260906063807 | 26 | 230 | 0.0 | 0.0 | 0.00 | 0.00 | 0.00 | 70 | 1010.9 |
| 20260906063307 | 26 | 230 | 0.0 | 0.0 | 0.00 | 0.00 | 0.00 | 71 | 1011.0 |
| 20260906062307 | 26 | 230 | 0.0 | 0.0 | 0.00 | 0.00 | 0.00 | 72 | 1011.1 |
| 20260906061808 | 26 | 230 | 0.0 | 0.0 | 0.00 | 0.00 | 0.00 | 72 | 1011.1 |
| 20260906061308 | 26 | 230 | 0.0 | 0.0 | 0.00 | 0.00 | 0.00 | 73 | 1010.9 |
| 20260906060806 | 26 | 230 | 0.0 | 0.0 | 0.00 | 0.00 | 0.00 | 73 | 1010.8 |
| 20260906060308 | 26 | 230 | 0.0 | 0.0 | 0.00 | 0.00 | 0.00 | 73 | 1010.8 |
| 20260906055804 | 26 | 230 | 0.0 | 0.0 | 0.00 | 0.00 | 0.00 | 73 | 1010.8 |
| 20260906055306 | 26 | 227 | 0.0 | 0.0 | 0.00 | 0.00 | 0.00 | 73 | 1010.8 |
| 20260906054804 | 26 | 227 | 0.0 | 0.0 | 0.00 | 0.00 | 0.00 | 73 | 1010.8 |
| 20260906054304 | 26 | 221 | 0.0 | 0.0 | 0.00 | 0.00 | 0.00 | 73 | 1010.9 |
| 20260906053802 | 26 | 198 | 0.0 | 8.0 | 0.00 | 0.00 | 0.00 | 74 | 1010.9 |
| 20260906053304 | 26 | 209 | 0.0 | 8.0 | 0.00 | 0.00 | 0.00 | 74 | 1011.1 |
| 20260906052803 | 26 | 228 | 0.0 | 0.0 | 0.00 | 0.00 | 0.00 | 73 | 1011.0 |
| 20260906052305 | 26 | 86 | 0.0 | 0.0 | 0.00 | 0.00 | 0.00 | 73 | 1011.0 |
| 20260906051759 | 26 | 86 | 0.0 | 0.0 | 0.00 | 0.00 | 0.00 | 73 | 1011.1 |
| 20260906051300 | 26 | 86 | 0.0 | 0.0 | 0.00 | 0.00 | 0.00 | 73 | 1011.1 |
| 20260906050800 | 26 | 86 | 0.0 | 0.0 | 0.00 | 0.00 | 0.00 | 73 | 1011.1 |
| 20260906050259 | 26 | 86 | 0.0 | 0.0 | 0.00 | 0.00 | 0.00 | 74 | 1011.2 |
| 20260906045759 | 26 | 86 | 0.0 | 0.0 | 0.00 | 0.00 | 0.00 | 74 | 1011.3 |
| 20260906045258 | 26 | 86 | 0.0 | 0.0 | 0.00 | 0.00 | 0.00 | 74 | 1011.3 |
| 20260906044757 | 26 | 86 | 0.0 | 0.0 | 0.00 | 0.00 | 0.00 | 75 | 1011.4 |
| 20260906044258 | 26 | 86 | 0.0 | 0.0 | 0.00 | 0.00 | 0.00 | 75 | 1011.3 |
| 20260906043757 | 26 | 86 | 0.0 | 0.0 | 0.00 | 0.00 | 0.00 | 75 | 1011.4 |
| 20260906043257 | 26 | 86 | 0.0 | 0.0 | 0.00 | 0.00 | 0.00 | 75 | 1011.4 |
| 20260906042758 | 26 | 86 | 0.0 | 0.0 | 0.00 | 0.00 | 0.00 | 76 | 1011.5 |
| 20260906042257 | 27 | 249 | 0.0 | 0.0 | 0.00 | 0.00 | 0.00 | 76 | 1011.4 |
| 20260906041758 | 27 | 249 | 0.0 | 0.0 | 0.00 | 0.00 | 0.00 | 77 | 1011.2 |
| 20260906041258 | 27 | 249 | 0.0 | 0.0 | 0.00 | 0.00 | 0.00 | 77 | 1011.3 |
| 20260906040757 | 27 | 249 | 0.0 | 0.0 | 0.00 | 0.00 | 0.00 | 77 | 1011.3 |
| 20260906040257 | 27 | 249 | 0.0 | 0.0 | 0.00 | 0.00 | 0.00 | 77 | 1011.2 |
| 20260906035259 | 27 | 238 | 0.0 | 0.0 | 0.00 | 0.00 | 0.00 | 77 | 1011.2 |
| 20260906034757 | 27 | 238 | 0.0 | 0.0 | 0.00 | 0.00 | 0.00 | 77 | 1011.2 |
| 20260906034258 | 27 | 238 | 0.0 | 0.0 | 0.00 | 0.00 | 0.00 | 77 | 1011.2 |
| 20260906033258 | 27 | 238 | 0.0 | 0.0 | 0.00 | 0.00 | 0.00 | 77 | 1011.1 |
| 20260906032757 | 27 | 238 | 0.0 | 0.0 | 0.00 | 0.00 | 0.00 | 77 | 1011.1 |
| 20260906031757 | 27 | 238 | 0.0 | 0.0 | 0.00 | 0.00 | 0.00 | 77 | 1011.1 |
| 20260906031255 | 27 | 238 | 0.0 | 0.0 | 0.00 | 0.00 | 0.00 | 77 | 1011.1 |
| 20260906030255 | 28 | 238 | 0.0 | 0.0 | 0.00 | 0.00 | 0.00 | 76 | 1011.0 |
| 20260906025753 | 28 | 238 | 0.0 | 0.0 | 0.00 | 0.00 | 0.00 | 76 | 1010.9 |
| 20260906025255 | 28 | 238 | 0.0 | 0.0 | 0.00 | 0.00 | 0.00 | 75 | 1010.8 |
| 20260906024755 | 28 | 238 | 0.0 | 1.6 | 0.00 | 0.00 | 0.00 | 75 | 1010.8 |
| 20260906024253 | 28 | 238 | 0.0 | 1.6 | 0.00 | 0.00 | 0.00 | 75 | 1010.7 |
| 20260906023756 | 28 | 225 | 0.0 | 0.0 | 0.00 | 0.00 | 0.00 | 75 | 1010.7 |
| 20260906023253 | 29 | 244 | 0.0 | 0.0 | 0.00 | 0.00 | 0.00 | 74 | 1010.5 |
| 20260906022754 | 29 | 242 | 0.0 | 0.0 | 0.00 | 0.00 | 0.00 | 75 | 1010.5 |
| 20260906022253 | 29 | 242 | 0.0 | 0.0 | 0.00 | 0.00 | 0.00 | 73 | 1010.4 |
| 20260906021252 | 29 | 242 | 0.0 | 0.0 | 0.00 | 0.00 | 0.00 | 72 | 1010.4 |
| 20260906020752 | 29 | 242 | 0.0 | 0.0 | 0.00 | 0.00 | 0.00 | 72 | 1010.2 |
| 20260906020253 | 29 | 242 | 0.0 | 0.0 | 0.00 | 0.00 | 0.00 | 72 | 1010.1 |
| 20260906015750 | 29 | 242 | 0.0 | 0.0 | 0.00 | 0.00 | 0.00 | 71 | 1010.0 |
| 20260906015250 | 30 | 243 | 0.0 | 0.0 | 0.00 | 0.00 | 0.00 | 71 | 1010.0 |
| 20260906014247 | 30 | 243 | 0.0 | 0.0 | 0.00 | 0.00 | 0.00 | 72 | 1010.0 |
| 20260906013749 | 30 | 243 | 0.0 | 0.0 | 0.00 | 0.00 | 0.00 | 71 | 1010.0 |
| 20260906013246 | 30 | 243 | 0.0 | 0.0 | 0.00 | 0.00 | 0.00 | 71 | 1010.0 |
| 20260906012744 | 30 | 129 | 0.0 | 0.0 | 0.00 | 0.00 | 0.00 | 67 | 1010.0 |
| 20260906012246 | 30 | 129 | 0.0 | 0.0 | 0.00 | 0.00 | 0.00 | 68 | 1009.9 |
| 20260906011739 | 30 | 121 | 0.0 | 0.0 | 0.00 | 0.00 | 0.00 | 67 | 1009.9 |
| 20260906011239 | 30 | 121 | 0.0 | 0.0 | 0.00 | 0.00 | 0.00 | 66 | 1009.8 |
| 20260906010737 | 30 | 104 | 0.0 | 0.0 | 0.00 | 0.00 | 0.00 | 65 | 1009.7 |
| 20260906010237 | 31 | 104 | 0.0 | 0.0 | 0.00 | 0.00 | 0.00 | 64 | 1009.7 |
| 20260906005737 | 31 | 104 | 0.0 | 0.0 | 0.00 | 0.00 | 0.00 | 63 | 1009.6 |
| 20260906005237 | 31 | 104 | 0.0 | 0.0 | 0.00 | 0.00 | 0.00 | 62 | 1009.6 |
| 20260906004737 | 31 | 104 | 0.0 | 0.0 | 0.00 | 0.00 | 0.00 | 59 | 1009.4 |
| 20260906003736 | 32 | 104 | 0.0 | 0.0 | 0.00 | 0.00 | 0.00 | 59 | 1009.4 |
| 20260906003234 | 32 | 103 | 0.0 | 0.0 | 0.00 | 0.00 | 0.00 | 57 | 1009.3 |
| 20260906002736 | 32 | 104 | 0.0 | 0.0 | 0.00 | 0.00 | 0.00 | 57 | 1009.4 |
| 20260906002233 | 33 | 104 | 0.0 | 0.0 | 0.00 | 0.00 | 0.00 | 56 | 1009.4 |
| 20260906001731 | 33 | 104 | 0.0 | 0.0 | 0.00 | 0.00 | 0.00 | 55 | 1009.4 |
| 20260906000724 | 33 | 104 | 0.0 | 0.0 | 0.00 | 0.00 | 0.00 | 53 | 1009.4 |
| 20260906000226 | 34 | 103 | 0.0 | 0.0 | 0.00 | 0.00 | 0.00 | 52 | 1009.5 |
| 20260905235225 | 35 | 104 | 0.0 | 0.0 | 0.00 | 0.00 | 0.00 | 49 | 1009.5 |
| 20260905234727 | 36 | 103 | 0.0 | 0.0 | 0.00 | 0.00 | 0.00 | 49 | 1009.5 |
| 20260905234222 | 36 | 103 | 0.0 | 0.0 | 0.00 | 0.00 | 0.00 | 49 | 1009.5 |
| 20260905233720 | 36 | 104 | 0.0 | 0.0 | 0.00 | 0.00 | 0.00 | 48 | 1009.6 |
| 20260905232718 | 36 | 29 | 0.0 | 0.0 | 0.00 | 0.00 | 0.00 | 46 | 1009.5 |
| 20260905232218 | 36 | 29 | 0.0 | 0.0 | 0.00 | 0.00 | 0.00 | 45 | 1009.5 |
| 20260905231719 | 36 | 27 | 0.0 | 0.0 | 0.00 | 0.00 | 0.00 | 45 | 1009.5 |
| 20260905231216 | 36 | 92 | 0.0 | 0.0 | 0.00 | 0.00 | 0.00 | 46 | 1009.4 |
| 20260905230714 | 36 | 92 | 0.0 | 0.0 | 0.00 | 0.00 | 0.00 | 48 | 1009.4 |
| 20260905230214 | 36 | 11 | 0.0 | 0.0 | 0.00 | 0.00 | 0.00 | 46 | 1009.4 |
| 20260905225712 | 36 | 11 | 0.0 | 0.0 | 0.00 | 0.00 | 0.00 | 45 | 1009.4 |
| 20260905224713 | 36 | 37 | 0.0 | 0.0 | 0.00 | 0.00 | 0.00 | 43 | 1009.3 |
| 20260905224213 | 37 | 32 | 0.0 | 9.7 | 0.00 | 0.00 | 0.00 | 41 | 1009.3 |
| 20260905223712 | 38 | 48 | 0.0 | 9.7 | 0.00 | 0.00 | 0.00 | 41 | 1009.3 |
| 20260905223209 | 38 | 355 | 0.0 | 0.0 | 0.00 | 0.00 | 0.00 | 39 | 1009.4 |
| 20260905222709 | 38 | 125 | 0.0 | 0.0 | 0.00 | 0.00 | 0.00 | 41 | 1009.3 |
| 20260905221710 | 38 | 85 | 0.0 | 0.0 | 0.00 | 0.00 | 0.00 | 40 | 1009.5 |
| 20260905221211 | 38 | 55 | 0.0 | 0.0 | 0.00 | 0.00 | 0.00 | 40 | 1009.4 |
| 20260905220709 | 38 | 86 | 0.0 | 0.0 | 0.00 | 0.00 | 0.00 | 39 | 1009.5 |
| 20260905215709 | 38 | 125 | 0.0 | 0.0 | 0.00 | 0.00 | 0.00 | 40 | 1009.5 |
| 20260905215208 | 38 | 84 | 0.0 | 0.0 | 0.00 | 0.00 | 0.00 | 39 | 1009.6 |
| 20260905214709 | 38 | 130 | 0.0 | 0.0 | 0.00 | 0.00 | 0.00 | 39 | 1009.6 |
| 20260905214210 | 39 | 219 | 0.0 | 0.0 | 0.00 | 0.00 | 0.00 | 38 | 1009.6 |
| 20260905213705 | 38 | 104 | 0.0 | 0.0 | 0.00 | 0.00 | 0.00 | 37 | 1009.7 |
| 20260905213203 | 38 | 113 | 0.0 | 4.8 | 0.00 | 0.00 | 0.00 | 38 | 1009.7 |
| 20260905212700 | 38 | 206 | 1.6 | 9.7 | 0.00 | 0.00 | 0.00 | 40 | 1009.7 |
| 20260905211700 | 38 | 69 | 0.0 | 6.4 | 0.00 | 0.03 | 0.00 | 39 | 1009.9 |
| 20260905211200 | 37 | 203 | 0.0 | 0.0 | 0.00 | 0.03 | 0.00 | 40 | 1009.8 |
| 20260905210658 | 37 | 108 | 0.0 | 0.0 | 0.00 | 0.03 | 0.00 | 40 | 1009.8 |
| 20260905210157 | 38 | 104 | 0.0 | 0.0 | 0.00 | 0.08 | 0.00 | 39 | 1009.9 |
| 20260905205658 | 38 | 75 | 0.0 | 6.4 | 0.00 | 0.13 | 0.00 | 38 | 1010.1 |
| 20260905205150 | 38 | 58 | 0.0 | 6.4 | 0.00 | 0.25 | 0.00 | 39 | 1010.1 |
| 20260905204651 | 38 | 238 | 1.6 | 8.0 | 0.00 | 0.41 | 0.00 | 39 | 1010.2 |
| 20260905204152 | 38 | 74 | 0.0 | 8.0 | 0.00 | 0.79 | 0.00 | 38 | 1010.2 |
| 20260905203651 | 38 | 70 | 0.0 | 0.0 | 0.00 | 1.22 | 0.00 | 38 | 1010.3 |
| 20260905203152 | 39 | 90 | 0.0 | 1.6 | 0.00 | 1.27 | 0.00 | 39 | 1010.4 |
| 20260905202149 | 39 | 274 | 0.0 | 1.6 | 0.00 | 1.27 | 0.00 | 38 | 1010.4 |
| 20260905200645 | 38 | 88 | 0.0 | 1.6 | 0.00 | 1.27 | 0.00 | 38 | 1010.7 |
| 20260905200144 | 38 | 105 | 0.0 | 1.6 | 0.00 | 1.27 | 0.00 | 39 | 1010.8 |
| 20260905195645 | 38 | 100 | 1.6 | 12.9 | 0.00 | 1.27 | 0.00 | 39 | 1011.0 |
| 20260905195144 | 38 | 301 | 1.6 | 12.9 | 0.00 | 1.27 | 0.00 | 39 | 1011.1 |
| 20260905194643 | 38 | 27 | 1.6 | 12.9 | 0.00 | 1.27 | 0.00 | 40 | 1011.2 |
| 20260905194144 | 38 | 235 | 0.0 | 8.0 | 0.00 | 1.27 | 0.00 | 41 | 1011.3 |
| 20260905193642 | 38 | 115 | 0.0 | 8.0 | 0.00 | 1.27 | 0.00 | 41 | 1011.4 |
| 20260905193140 | 38 | 53 | 0.0 | 1.6 | 0.00 | 1.27 | 0.00 | 40 | 1011.4 |
| 20260905192639 | 38 | 10 | 0.0 | 0.0 | 0.00 | 1.27 | 0.00 | 39 | 1011.5 |
| 20260905192137 | 38 | 96 | 1.6 | 12.9 | 0.00 | 1.27 | 0.00 | 41 | 1011.6 |
| 20260905191637 | 38 | 70 | 1.6 | 12.9 | 0.00 | 1.27 | 0.00 | 40 | 1011.7 |
| 20260905191136 | 38 | 53 | 0.0 | 9.7 | 0.00 | 1.27 | 0.00 | 41 | 1011.9 |
| 20260905190635 | 38 | 23 | 0.0 | 0.0 | 0.00 | 1.27 | 0.00 | 41 | 1012.0 |
| 20260905190135 | 38 | 1 | 0.0 | 1.6 | 0.00 | 1.27 | 0.00 | 42 | 1012.0 |
| 20260905185634 | 37 | 121 | 0.0 | 1.6 | 0.00 | 1.27 | 0.00 | 42 | 1012.1 |
| 20260905185132 | 37 | 188 | 0.0 | 9.7 | 0.00 | 1.27 | 0.00 | 41 | 1012.1 |
| 20260905184634 | 38 | 29 | 0.0 | 11.3 | 0.00 | 1.27 | 0.00 | 40 | 1012.1 |
| 20260905184135 | 38 | 266 | 0.0 | 11.3 | 0.00 | 1.27 | 0.00 | 41 | 1012.1 |
| 20260905183631 | 37 | 80 | 0.0 | 8.0 | 0.00 | 1.27 | 0.00 | 43 | 1012.3 |
| 20260905183130 | 37 | 110 | 0.0 | 3.2 | 0.00 | 1.27 | 0.00 | 43 | 1012.4 |
| 20260905182630 | 37 | 138 | 0.0 | 3.2 | 0.00 | 1.27 | 0.00 | 45 | 1012.4 |
| 20260905182129 | 37 | 141 | 0.0 | 9.7 | 0.00 | 1.27 | 0.00 | 43 | 1012.4 |
| 20260905181629 | 37 | 86 | 3.2 | 12.9 | 0.00 | 1.27 | 0.00 | 44 | 1012.4 |
| 20260905181130 | 37 | 117 | 3.2 | 12.9 | 0.00 | 1.27 | 0.00 | 43 | 1012.5 |
| 20260905180627 | 38 | 74 | 1.6 | 6.4 | 0.00 | 1.27 | 0.00 | 42 | 1012.5 |
| 20260905180129 | 37 | 77 | 1.6 | 9.7 | 0.00 | 1.27 | 0.00 | 43 | 1012.6 |
| 20260905175123 | 37 | 55 | 1.6 | 8.0 | 0.00 | 1.27 | 0.00 | 43 | 1012.7 |
| 20260905174624 | 37 | 86 | 1.6 | 9.7 | 0.00 | 1.27 | 0.00 | 42 | 1012.7 |
| 20260905174125 | 37 | 86 | 1.6 | 9.7 | 0.00 | 1.27 | 0.00 | 44 | 1012.7 |
| 20260905173623 | 37 | 94 | 1.6 | 8.0 | 0.00 | 1.27 | 0.00 | 44 | 1012.7 |
| 20260905173123 | 36 | 83 | 1.6 | 8.0 | 0.00 | 1.27 | 0.00 | 46 | 1012.7 |
| 20260905172122 | 37 | 53 | 0.0 | 0.0 | 0.00 | 1.27 | 0.00 | 45 | 1012.8 |
| 20260905171622 | 36 | 132 | 0.0 | 0.0 | 0.00 | 1.27 | 0.00 | 47 | 1012.8 |
| 20260905171125 | 36 | 91 | 0.0 | 1.6 | 0.00 | 1.27 | 0.00 | 46 | 1013.0 |
| 20260905170611 | 36 | 101 | 0.0 | 1.6 | 0.00 | 1.27 | 0.00 | 47 | 1013.1 |
| 20260905170106 | 36 | 356 | 0.0 | 0.0 | 0.00 | 1.27 | 0.00 | 48 | 1013.2 |
| 20260905165103 | 35 | 17 | 1.6 | 6.4 | 0.00 | 1.27 | 0.00 | 51 | 1013.4 |
| 20260905164604 | 35 | 205 | 1.6 | 6.4 | 0.00 | 1.27 | 0.00 | 51 | 1013.5 |
| 20260905163604 | 35 | 354 | 1.6 | 4.8 | 0.00 | 1.27 | 0.00 | 53 | 1013.7 |
| 20260905163101 | 35 | 136 | 1.6 | 11.3 | 0.00 | 1.27 | 0.00 | 55 | 1013.8 |
| 20260905162600 | 34 | 78 | 1.6 | 11.3 | 0.00 | 1.27 | 0.00 | 57 | 1013.8 |
| 20260905162102 | 34 | 227 | 0.0 | 1.6 | 0.00 | 1.27 | 0.00 | 53 | 1013.8 |
| 20260905161558 | 34 | 236 | 0.0 | 1.6 | 0.00 | 1.27 | 0.00 | 54 | 1013.8 |
| 20260905161100 | 34 | 240 | 0.0 | 6.4 | 0.00 | 1.27 | 0.00 | 54 | 1013.9 |
| 20260905160600 | 34 | 185 | 1.6 | 8.0 | 0.00 | 1.27 | 0.00 | 56 | 1014.0 |
| 20260905160059 | 34 | 84 | 1.6 | 8.0 | 0.00 | 1.27 | 0.00 | 56 | 1014.0 |
| 20260905155559 | 34 | 236 | 0.0 | 3.2 | 0.00 | 1.27 | 0.00 | 56 | 1014.0 |
| 20260905154559 | 33 | 297 | 0.0 | 0.0 | 0.00 | 1.27 | 0.00 | 57 | 1014.1 |
| 20260905154100 | 33 | 315 | 0.0 | 0.0 | 0.00 | 1.27 | 0.00 | 57 | 1014.1 |
| 20260905153557 | 33 | 114 | 0.0 | 0.0 | 0.00 | 1.27 | 0.00 | 59 | 1014.2 |
| 20260905153057 | 33 | 99 | 0.0 | 1.6 | 0.00 | 1.27 | 0.00 | 60 | 1014.2 |
| 20260905152554 | 32 | 56 | 0.0 | 1.6 | 0.00 | 1.27 | 0.00 | 62 | 1014.2 |
| 20260905152055 | 32 | 272 | 0.0 | 1.6 | 0.00 | 1.27 | 0.00 | 63 | 1014.1 |
| 20260905151555 | 32 | 266 | 0.0 | 0.0 | 0.00 | 1.27 | 0.00 | 65 | 1014.2 |
| 20260905151057 | 31 | 289 | 0.0 | 0.0 | 0.00 | 1.27 | 0.00 | 66 | 1014.1 |
| 20260905150555 | 31 | 295 | 0.0 | 0.0 | 0.00 | 1.27 | 0.00 | 67 | 1014.2 |
| 20260905150056 | 31 | 36 | 0.0 | 0.0 | 0.00 | 1.27 | 0.00 | 67 | 1014.2 |
| 20260905145556 | 31 | 319 | 0.0 | 0.0 | 0.00 | 1.27 | 0.00 | 69 | 1014.2 |
| 20260905145053 | 31 | 240 | 0.0 | 0.0 | 0.00 | 1.27 | 0.00 | 69 | 1014.3 |
| 20260905144554 | 31 | 259 | 0.0 | 0.0 | 0.00 | 1.27 | 0.00 | 70 | 1014.3 |
| 20260905144047 | 30 | 225 | 0.0 | 0.0 | 0.00 | 1.27 | 0.00 | 71 | 1014.3 |
| 20260905143545 | 30 | 225 | 0.0 | 0.0 | 0.00 | 1.27 | 0.00 | 73 | 1014.3 |
| 20260905143041 | 30 | 235 | 0.0 | 0.0 | 0.00 | 1.27 | 0.00 | 74 | 1014.3 |
| 20260905142544 | 29 | 134 | 0.0 | 0.0 | 0.00 | 1.27 | 0.00 | 74 | 1014.3 |
| 20260905141539 | 29 | 228 | 0.0 | 0.0 | 0.00 | 1.27 | 0.00 | 77 | 1014.4 |
| 20260905141041 | 28 | 243 | 0.0 | 0.0 | 0.00 | 1.27 | 0.00 | 77 | 1014.4 |
| 20260905140537 | 28 | 236 | 0.0 | 4.8 | 0.00 | 1.27 | 0.00 | 78 | 1014.4 |
| 20260905140035 | 28 | 227 | 0.0 | 4.8 | 0.00 | 1.27 | 0.00 | 77 | 1014.5 |
| 20260905135533 | 28 | 195 | 0.0 | 0.0 | 0.00 | 1.27 | 0.00 | 77 | 1014.4 |
| 20260905135034 | 28 | 146 | 0.0 | 0.0 | 0.00 | 1.27 | 0.00 | 75 | 1014.4 |
| 20260905134533 | 28 | 271 | 0.0 | 0.0 | 0.00 | 1.27 | 0.00 | 69 | 1014.3 |
| 20260905134032 | 27 | 271 | 0.0 | 0.0 | 0.00 | 1.27 | 0.00 | 68 | 1014.5 |
| 20260905132531 | 26 | 245 | 0.0 | 0.0 | 0.00 | 1.27 | 0.00 | 52 | 1014.4 |
| 20260905132032 | 26 | 245 | 0.0 | 0.0 | 0.00 | 1.27 | 0.00 | 50 | 1014.5 |
| 20260905131531 | 26 | 245 | 0.0 | 0.0 | 0.00 | 1.27 | 0.00 | 49 | 1014.5 |
| 20260905131032 | 26 | 104 | 0.0 | 0.0 | 0.00 | 1.27 | 0.00 | 49 | 1014.5 |
| 20260905130028 | 25 | 103 | 0.0 | 0.0 | 0.00 | 1.27 | 0.00 | 49 | 1014.6 |
| 20260905125528 | 25 | 103 | 0.0 | 0.0 | 0.00 | 1.27 | 0.00 | 50 | 1014.6 |
| 20260905125026 | 25 | 103 | 0.0 | 0.0 | 0.00 | 1.27 | 0.00 | 50 | 1014.6 |
| 20260905124524 | 24 | 103 | 0.0 | 0.0 | 0.00 | 1.27 | 0.00 | 51 | 1014.5 |
| 20260905124024 | 23 | 103 | 0.0 | 0.0 | 0.00 | 1.27 | 0.00 | 51 | 1014.6 |
| 20260905123522 | 23 | 103 | 0.0 | 0.0 | 0.00 | 1.27 | 0.00 | 51 | 1014.6 |
| 20260905122524 | 23 | 103 | 0.0 | 0.0 | 0.00 | 1.27 | 0.00 | 51 | 1014.4 |
| 20260905122018 | 23 | 103 | 0.0 | 0.0 | 0.00 | 1.27 | 0.00 | 51 | 1014.4 |
| 20260905121515 | 23 | 103 | 0.0 | 0.0 | 0.00 | 1.27 | 0.00 | 51 | 1014.3 |